Time,TemperatureF,DewpointF,PressureIn,WindDirection,WindDirectionDegrees,WindSpeedMPH,WindSpeedGustMPH,Humidity,HourlyPrecipIn,Conditions,Clouds,dailyrainin,SoftwareType,DateUTC
2013-06-11 00:03:00,70.0,69.0,29.71,South,173,3.0,-999.0,97,-99.99,,,-99.99,,2013-06-11 04:03:00,
2013-06-11 00:13:00,70.0,69.0,29.71,South,173,3.0,-999.0,97,-99.99,,,-99.99,,2013-06-11 04:13:00,
2013-06-11 00:23:00,70.0,69.0,29.70,SW,229,4.0,-999.0,97,-99.99,,,-99.99,,2013-06-11 04:23:00,
2013-06-11 00:33:00,70.0,69.0,29.70,South,179,3.0,-999.0,97,-99.99,,,-99.99,,2013-06-11 04:33:00,
2013-06-11 00:42:00,70.0,69.0,29.70,South,179,3.0,-999.0,97,-99.99,,,-99.99,,2013-06-11 04:42:00,
2013-06-11 00:52:00,71.0,70.0,29.69,SE,145,4.0,-999.0,97,-99.99,,,-99.99,,2013-06-11 04:52:00,
2013-06-11 01:02:00,71.0,70.0,29.68,SSW,209,3.0,-999.0,97,-99.99,,,-99.99,,2013-06-11 05:02:00,
2013-06-11 01:12:00,71.0,70.0,29.68,SSW,209,3.0,-999.0,97,-99.99,,,-99.99,,2013-06-11 05:12:00,
2013-06-11 01:22:00,71.0,70.0,29.67,South,186,4.0,-999.0,97,-99.99,,,-99.99,,2013-06-11 05:22:00,
2013-06-11 01:32:00,71.0,70.0,29.67,SSW,213,2.0,-999.0,97,-99.99,,,-99.99,,2013-06-11 05:32:00,
2013-06-11 01:42:00,71.0,70.0,29.67,SSW,213,2.0,-999.0,97,-99.99,,,-99.99,,2013-06-11 05:42:00,
2013-06-11 01:52:00,71.0,70.0,29.66,SSW,198,1.0,-999.0,97,-99.99,,,-99.99,,2013-06-11 05:52:00,
2013-06-11 02:02:00,71.0,70.0,29.66,SSW,196,1.0,-999.0,97,-99.99,,,-99.99,,2013-06-11 06:02:00,
2013-06-11 02:12:00,71.0,70.0,29.66,SSW,196,1.0,-999.0,97,-99.99,,,-99.99,,2013-06-11 06:12:00,
2013-06-11 02:22:00,70.0,69.0,29.65,South,190,3.0,-999.0,96,-99.99,,,-99.99,,2013-06-11 06:22:00,
2013-06-11 02:32:00,70.0,69.0,29.65,SW,236,4.0,-999.0,96,-99.99,,,-99.99,,2013-06-11 06:32:00,
2013-06-11 02:42:00,70.0,69.0,29.65,SW,236,4.0,-999.0,96,-99.99,,,-99.99,,2013-06-11 06:42:00,
2013-06-11 02:52:00,71.0,70.0,29.66,SSW,213,4.0,-999.0,97,-99.99,,,-99.99,,2013-06-11 06:52:00,
2013-06-11 03:02:00,71.0,70.0,29.65,SW,214,3.0,-999.0,97,-99.99,,,-99.99,,2013-06-11 07:02:00,
2013-06-11 03:13:00,70.0,69.0,29.65,SW,234,1.0,-999.0,96,-99.99,,,-99.99,,2013-06-11 07:13:00,
2013-06-11 03:22:00,70.0,69.0,29.65,SW,234,1.0,-999.0,96,-99.99,,,-99.99,,2013-06-11 07:22:00,
2013-06-11 03:32:00,70.0,69.0,29.65,SSW,210,3.0,-999.0,96,-99.99,,,-99.99,,2013-06-11 07:32:00,
2013-06-11 03:42:00,70.0,69.0,29.66,WNW,300,2.0,-999.0,96,-99.99,,,-99.99,,2013-06-11 07:42:00,
2013-06-11 03:52:00,70.0,69.0,29.66,WNW,300,2.0,-999.0,96,-99.99,,,-99.99,,2013-06-11 07:52:00,
2013-06-11 04:02:00,70.0,69.0,29.66,SW,226,2.0,-999.0,96,-99.99,,,-99.99,,2013-06-11 08:02:00,
2013-06-11 04:12:00,70.0,69.0,29.66,SW,226,2.0,-999.0,96,-99.99,,,-99.99,,2013-06-11 08:12:00,
2013-06-11 04:22:00,70.0,69.0,29.66,SSW,200,2.0,-999.0,96,-99.99,,,-99.99,,2013-06-11 08:22:00,
2013-06-11 04:32:00,70.0,69.0,29.65,South,173,2.0,-999.0,96,-99.99,,,-99.99,,2013-06-11 08:32:00,
2013-06-11 04:42:00,69.0,68.0,29.66,SW,215,1.0,-999.0,96,-99.99,,,-99.99,,2013-06-11 08:42:00,
2013-06-11 04:52:00,69.0,68.0,29.66,SW,215,1.0,-999.0,96,-99.99,,,-99.99,,2013-06-11 08:52:00,
2013-06-11 05:02:00,69.0,68.0,29.65,WNW,292,2.0,-999.0,96,-99.99,,,-99.99,,2013-06-11 09:02:00,
2013-06-11 05:12:00,69.0,68.0,29.65,WNW,292,2.0,-999.0,96,-99.99,,,-99.99,,2013-06-11 09:12:00,
2013-06-11 05:22:00,69.0,68.0,29.65,SSW,213,1.0,-999.0,96,-99.99,,,-99.99,,2013-06-11 09:22:00,
2013-06-11 05:33:00,69.0,68.0,29.65,SSW,207,2.0,-999.0,96,-99.99,,,-99.99,,2013-06-11 09:33:00,
2013-06-11 05:43:00,69.0,68.0,29.65,SSW,207,2.0,-999.0,96,-99.99,,,-99.99,,2013-06-11 09:43:00,
2013-06-11 05:53:00,68.0,67.0,29.65,WSW,240,1.0,-999.0,96,-99.99,,,-99.99,,2013-06-11 09:53:00,
2013-06-11 06:03:00,68.0,67.0,29.66,SSW,204,0.0,-999.0,96,-99.99,,,-99.99,,2013-06-11 10:03:00,
2013-06-11 06:12:00,68.0,67.0,29.66,SSW,204,0.0,-999.0,96,-99.99,,,-99.99,,2013-06-11 10:12:00,
2013-06-11 06:23:00,68.0,67.0,29.66,SW,236,0.0,-999.0,96,-99.99,,,-99.99,,2013-06-11 10:23:00,
2013-06-11 06:33:00,68.0,67.0,29.66,SW,234,0.0,-999.0,97,-99.99,,,-99.99,,2013-06-11 10:33:00,
2013-06-11 06:42:00,68.0,67.0,29.66,SW,234,0.0,-999.0,97,-99.99,,,-99.99,,2013-06-11 10:42:00,
2013-06-11 06:52:00,68.0,67.0,29.66,SSW,202,1.0,-999.0,97,-99.99,,,-99.99,,2013-06-11 10:52:00,
2013-06-11 07:02:00,68.0,67.0,29.66,SSW,201,1.0,-999.0,97,-99.99,,,-99.99,,2013-06-11 11:02:00,
2013-06-11 07:12:00,68.0,67.0,29.66,SSW,201,1.0,-999.0,97,-99.99,,,-99.99,,2013-06-11 11:12:00,
2013-06-11 07:22:00,69.0,68.0,29.66,SSW,209,2.0,-999.0,96,-99.99,,,-99.99,,2013-06-11 11:22:00,
2013-06-11 07:32:00,69.0,68.0,29.66,SSW,200,2.0,-999.0,97,-99.99,,,-99.99,,2013-06-11 11:32:00,
2013-06-11 07:42:00,69.0,68.0,29.66,SSW,200,2.0,-999.0,97,-99.99,,,-99.99,,2013-06-11 11:42:00,
2013-06-11 07:52:00,69.0,68.0,29.66,SW,218,2.0,-999.0,96,-99.99,,,-99.99,,2013-06-11 11:52:00,
2013-06-11 08:02:00,69.0,68.0,29.67,WSW,241,2.0,-999.0,96,-99.99,,,-99.99,,2013-06-11 12:02:00,
2013-06-11 08:12:00,69.0,68.0,29.66,WSW,242,2.0,-999.0,95,-99.99,,,-99.99,,2013-06-11 12:12:00,
2013-06-11 08:22:00,69.0,68.0,29.66,WSW,242,2.0,-999.0,95,-99.99,,,-99.99,,2013-06-11 12:22:00,
2013-06-11 08:32:00,70.0,68.0,29.66,WSW,240,1.0,-999.0,95,-99.99,,,-99.99,,2013-06-11 12:32:00,
2013-06-11 08:42:00,71.0,69.0,29.66,WSW,240,2.0,-999.0,94,-99.99,,,-99.99,,2013-06-11 12:42:00,
2013-06-11 08:52:00,71.0,69.0,29.66,WSW,240,2.0,-999.0,94,-99.99,,,-99.99,,2013-06-11 12:52:00,
2013-06-11 09:02:00,71.0,69.0,29.66,WSW,246,1.0,-999.0,92,-99.99,,,-99.99,,2013-06-11 13:02:00,
2013-06-11 09:12:00,71.0,69.0,29.66,WSW,246,1.0,-999.0,92,-99.99,,,-99.99,,2013-06-11 13:12:00,
2013-06-11 09:22:00,72.0,69.0,29.66,SW,227,3.0,-999.0,90,-99.99,,,-99.99,,2013-06-11 13:22:00,
2013-06-11 09:32:00,73.0,69.0,29.66,WSW,245,2.0,-999.0,87,-99.99,,,-99.99,,2013-06-11 13:32:00,
2013-06-11 09:42:00,73.0,69.0,29.66,WSW,245,2.0,-999.0,87,-99.99,,,-99.99,,2013-06-11 13:42:00,
2013-06-11 09:52:00,74.0,70.0,29.65,WNW,299,2.0,-999.0,86,-99.99,,,-99.99,,2013-06-11 13:52:00,
2013-06-11 10:02:00,75.0,69.0,29.65,North,5,1.0,-999.0,83,-99.99,,,-99.99,,2013-06-11 14:02:00,
2013-06-11 10:12:00,75.0,69.0,29.65,North,5,1.0,-999.0,83,-99.99,,,-99.99,,2013-06-11 14:12:00,
2013-06-11 10:22:00,76.0,70.0,29.65,SW,214,2.0,-999.0,83,-99.99,,,-99.99,,2013-06-11 14:22:00,
2013-06-11 10:32:00,76.0,69.0,29.65,SW,223,2.0,-999.0,80,-99.99,,,-99.99,,2013-06-11 14:32:00,
2013-06-11 10:42:00,76.0,69.0,29.65,SW,223,2.0,-999.0,80,-99.99,,,-99.99,,2013-06-11 14:42:00,
2013-06-11 10:53:00,76.0,69.0,29.64,WSW,248,1.0,-999.0,80,-99.99,,,-99.99,,2013-06-11 14:53:00,
2013-06-11 11:02:00,77.0,69.0,29.64,WSW,243,2.0,-999.0,77,-99.99,,,-99.99,,2013-06-11 15:02:00,
2013-06-11 11:12:00,77.0,69.0,29.64,WSW,243,2.0,-999.0,77,-99.99,,,-99.99,,2013-06-11 15:12:00,
2013-06-11 11:22:00,78.0,69.0,29.63,WSW,243,3.0,-999.0,74,-99.99,,,-99.99,,2013-06-11 15:22:00,
2013-06-11 11:33:00,79.0,69.0,29.63,SW,231,3.0,-999.0,72,-99.99,,,-99.99,,2013-06-11 15:33:00,
2013-06-11 11:43:00,79.0,69.0,29.63,SW,231,3.0,-999.0,72,-99.99,,,-99.99,,2013-06-11 15:43:00,
2013-06-11 11:53:00,79.0,68.0,29.63,SW,223,2.0,-999.0,70,-99.99,,,-99.99,,2013-06-11 15:53:00,
2013-06-11 12:03:00,80.0,69.0,29.63,NW,306,2.0,-999.0,70,-99.99,,,-99.99,,2013-06-11 16:03:00,
2013-06-11 12:12:00,80.0,69.0,29.63,NW,306,2.0,-999.0,70,-99.99,,,-99.99,,2013-06-11 16:12:00,
2013-06-11 12:22:00,79.0,69.0,29.63,SW,214,3.0,-999.0,71,-99.99,,,-99.99,,2013-06-11 16:22:00,
2013-06-11 12:33:00,80.0,69.0,29.62,SW,234,2.0,-999.0,69,-99.99,,,-99.99,,2013-06-11 16:33:00,
2013-06-11 12:42:00,81.0,68.0,29.61,West,261,2.0,-999.0,65,-99.99,,,-99.99,,2013-06-11 16:42:00,
2013-06-11 12:53:00,81.0,68.0,29.61,West,261,2.0,-999.0,65,-99.99,,,-99.99,,2013-06-11 16:53:00,
2013-06-11 13:02:00,82.0,69.0,29.61,WSW,252,3.0,-999.0,65,-99.99,,,-99.99,,2013-06-11 17:02:00,
2013-06-11 13:12:00,82.0,69.0,29.61,WSW,252,3.0,-999.0,65,-99.99,,,-99.99,,2013-06-11 17:12:00,
2013-06-11 13:22:00,82.0,68.0,29.60,SSW,207,4.0,-999.0,63,-99.99,,,-99.99,,2013-06-11 17:22:00,
2013-06-11 13:32:00,83.0,68.0,29.60,SSW,205,3.0,-999.0,61,-99.99,,,-99.99,,2013-06-11 17:32:00,
2013-06-11 13:43:00,82.0,67.0,29.59,SSW,196,2.0,-999.0,61,-99.99,,,-99.99,,2013-06-11 17:43:00,
2013-06-11 13:53:00,82.0,67.0,29.59,SSW,196,2.0,-999.0,61,-99.99,,,-99.99,,2013-06-11 17:53:00,
2013-06-11 14:02:00,82.0,67.0,29.59,NNW,337,3.0,-999.0,61,-99.99,,,-99.99,,2013-06-11 18:02:00,
2013-06-11 14:12:00,82.0,67.0,29.59,NNW,337,3.0,-999.0,61,-99.99,,,-99.99,,2013-06-11 18:12:00,
2013-06-11 14:22:00,83.0,69.0,29.59,WSW,238,2.0,-999.0,62,-99.99,,,-99.99,,2013-06-11 18:22:00,
2013-06-11 14:32:00,81.0,66.0,29.59,South,190,3.0,-999.0,61,-99.99,,,-99.99,,2013-06-11 18:32:00,
2013-06-11 14:43:00,81.0,66.0,29.59,South,190,3.0,-999.0,61,-99.99,,,-99.99,,2013-06-11 18:43:00,
2013-06-11 14:52:00,83.0,69.0,29.58,WSW,254,2.0,-999.0,63,-99.99,,,-99.99,,2013-06-11 18:52:00,
2013-06-11 15:02:00,83.0,66.0,29.58,SSE,162,3.0,-999.0,57,-99.99,,,-99.99,,2013-06-11 19:02:00,
2013-06-11 15:12:00,83.0,66.0,29.58,SSE,162,3.0,-999.0,57,-99.99,,,-99.99,,2013-06-11 19:12:00,
2013-06-11 15:22:00,81.0,66.0,29.58,ENE,77,3.0,-999.0,61,-99.99,,,-99.99,,2013-06-11 19:22:00,
2013-06-11 15:33:00,80.0,67.0,29.57,West,262,2.0,-999.0,65,-99.99,,,-99.99,,2013-06-11 19:33:00,
2013-06-11 15:42:00,80.0,67.0,29.57,West,262,2.0,-999.0,65,-99.99,,,-99.99,,2013-06-11 19:42:00,
2013-06-11 15:53:00,79.0,68.0,29.57,NE,44,1.0,-999.0,69,-99.99,,,-99.99,,2013-06-11 19:53:00,
2013-06-11 16:03:00,79.0,68.0,29.57,NE,44,1.0,-999.0,69,-99.99,,,-99.99,,2013-06-11 20:03:00,
2013-06-11 16:12:00,79.0,68.0,29.57,NE,44,1.0,-999.0,69,-99.99,,,-99.99,,2013-06-11 20:12:00,
2013-06-11 16:22:00,81.0,69.0,29.57,SE,138,1.0,-999.0,68,-99.99,,,-99.99,,2013-06-11 20:22:00,
2013-06-11 16:32:00,82.0,68.0,29.56,NW,305,4.0,-999.0,63,-99.99,,,-99.99,,2013-06-11 20:32:00,
2013-06-11 16:42:00,82.0,68.0,29.56,NW,305,4.0,-999.0,63,-99.99,,,-99.99,,2013-06-11 20:42:00,
2013-06-11 16:52:00,81.0,67.0,29.56,West,259,3.0,-999.0,63,-99.99,,,-99.99,,2013-06-11 20:52:00,
2013-06-11 17:02:00,81.0,67.0,29.56,North,350,3.0,-999.0,62,-99.99,,,-99.99,,2013-06-11 21:02:00,
2013-06-11 17:12:00,81.0,67.0,29.56,North,350,3.0,-999.0,62,-99.99,,,-99.99,,2013-06-11 21:12:00,
2013-06-11 17:22:00,80.0,67.0,29.56,SSE,158,3.0,-999.0,65,-99.99,,,-99.99,,2013-06-11 21:22:00,
2013-06-11 17:33:00,80.0,68.0,29.56,WSW,240,1.0,-999.0,67,-99.99,,,-99.99,,2013-06-11 21:33:00,
2013-06-11 17:42:00,80.0,68.0,29.56,WSW,240,1.0,-999.0,67,-99.99,,,-99.99,,2013-06-11 21:42:00,
2013-06-11 17:53:00,81.0,68.0,29.55,WSW,238,3.0,-999.0,65,-99.99,,,-99.99,,2013-06-11 21:53:00,
2013-06-11 18:03:00,81.0,68.0,29.55,West,269,3.0,-999.0,65,-99.99,,,-99.99,,2013-06-11 22:03:00,
2013-06-11 18:13:00,81.0,68.0,29.55,West,269,3.0,-999.0,65,-99.99,,,-99.99,,2013-06-11 22:13:00,
2013-06-11 18:22:00,81.0,69.0,29.55,West,262,2.0,-999.0,66,-99.99,,,-99.99,,2013-06-11 22:22:00,
2013-06-11 18:33:00,80.0,68.0,29.56,NE,42,1.0,-999.0,66,-99.99,,,-99.99,,2013-06-11 22:33:00,
2013-06-11 18:42:00,80.0,68.0,29.56,NE,42,1.0,-999.0,66,-99.99,,,-99.99,,2013-06-11 22:42:00,
2013-06-11 18:52:00,79.0,67.0,29.55,WNW,288,2.0,-999.0,66,-99.99,,,-99.99,,2013-06-11 22:52:00,
2013-06-11 19:02:00,79.0,67.0,29.55,SW,229,2.0,-999.0,67,-99.99,,,-99.99,,2013-06-11 23:02:00,
2013-06-11 19:12:00,79.0,67.0,29.55,SW,229,2.0,-999.0,67,-99.99,,,-99.99,,2013-06-11 23:12:00,
2013-06-11 19:22:00,79.0,67.0,29.55,SW,232,2.0,-999.0,67,-99.99,,,-99.99,,2013-06-11 23:22:00,
2013-06-11 19:32:00,79.0,67.0,29.56,WNW,286,2.0,-999.0,67,-99.99,,,-99.99,,2013-06-11 23:32:00,
2013-06-11 19:42:00,79.0,67.0,29.56,WNW,286,2.0,-999.0,67,-99.99,,,-99.99,,2013-06-11 23:42:00,
2013-06-11 19:52:00,79.0,68.0,29.56,NNW,346,1.0,-999.0,68,-99.99,,,-99.99,,2013-06-11 23:52:00,
2013-06-11 20:02:00,78.0,67.0,29.57,SSE,163,2.0,-999.0,68,-99.99,,,-99.99,,2013-06-12 00:02:00,
2013-06-11 20:12:00,78.0,65.0,29.57,West,259,3.0,-999.0,65,-99.99,,,-99.99,,2013-06-12 00:12:00,
2013-06-11 20:22:00,78.0,65.0,29.57,West,259,3.0,-999.0,65,-99.99,,,-99.99,,2013-06-12 00:22:00,
2013-06-11 20:32:00,77.0,65.0,29.57,SE,142,1.0,-999.0,67,-99.99,,,-99.99,,2013-06-12 00:32:00,
2013-06-11 20:42:00,77.0,65.0,29.57,SE,142,1.0,-999.0,67,-99.99,,,-99.99,,2013-06-12 00:42:00,
2013-06-11 20:52:00,76.0,65.0,29.58,WSW,257,1.0,-999.0,68,-99.99,,,-99.99,,2013-06-12 00:52:00,
2013-06-11 21:02:00,76.0,65.0,29.58,SW,226,0.0,-999.0,69,-99.99,,,-99.99,,2013-06-12 01:02:00,
2013-06-11 21:12:00,76.0,65.0,29.58,SW,226,0.0,-999.0,69,-99.99,,,-99.99,,2013-06-12 01:12:00,
2013-06-11 21:22:00,75.0,65.0,29.58,WSW,246,1.0,-999.0,71,-99.99,,,-99.99,,2013-06-12 01:22:00,
2013-06-11 21:32:00,75.0,65.0,29.59,WSW,246,1.0,-999.0,70,-99.99,,,-99.99,,2013-06-12 01:32:00,
2013-06-11 21:42:00,75.0,65.0,29.59,WSW,246,1.0,-999.0,70,-99.99,,,-99.99,,2013-06-12 01:42:00,
2013-06-11 21:52:00,74.0,64.0,29.60,NNE,29,1.0,-999.0,71,-99.99,,,-99.99,,2013-06-12 01:52:00,
2013-06-11 22:02:00,74.0,64.0,29.60,NE,53,1.0,-999.0,70,-99.99,,,-99.99,,2013-06-12 02:02:00,
2013-06-11 22:12:00,74.0,64.0,29.60,NE,53,1.0,-999.0,70,-99.99,,,-99.99,,2013-06-12 02:12:00,
2013-06-11 22:22:00,74.0,63.0,29.61,SW,236,2.0,-999.0,69,-99.99,,,-99.99,,2013-06-12 02:22:00,
2013-06-11 22:32:00,74.0,64.0,29.62,WSW,245,1.0,-999.0,71,-99.99,,,-99.99,,2013-06-12 02:32:00,
2013-06-11 22:42:00,73.0,63.0,29.63,NW,311,1.0,-999.0,71,-99.99,,,-99.99,,2013-06-12 02:42:00,
2013-06-11 22:52:00,73.0,63.0,29.63,NW,311,1.0,-999.0,71,-99.99,,,-99.99,,2013-06-12 02:52:00,
2013-06-11 23:02:00,73.0,63.0,29.63,South,172,1.0,-999.0,72,-99.99,,,-99.99,,2013-06-12 03:02:00,
2013-06-11 23:12:00,73.0,63.0,29.63,South,172,1.0,-999.0,72,-99.99,,,-99.99,,2013-06-12 03:12:00,
2013-06-11 23:22:00,72.0,63.0,29.63,NW,318,1.0,-999.0,73,-99.99,,,-99.99,,2013-06-12 03:22:00,
2013-06-11 23:33:00,72.0,63.0,29.63,North,5,1.0,-999.0,73,-99.99,,,-99.99,,2013-06-12 03:33:00,
2013-06-11 23:43:00,72.0,63.0,29.63,North,5,1.0,-999.0,73,-99.99,,,-99.99,,2013-06-12 03:43:00,
2013-06-11 23:53:00,72.0,63.0,29.63,SW,234,1.0,-999.0,73,-99.99,,,-99.99,,2013-06-12 03:53:00,